Home > Weather > Harstad > Past weeks

Flag for Norway Past Weather in Harstad, Norway — Yesterday and Last 2 Weeks

Now
79 °F

Warm.


Feels Like: 80 °F
Forecast: 52 / 58 °F
Wind: 6 mph from North

Location: Evenes

Current Time: Jul 23, 2016 at 3:13:01 PM

Latest Report: Jul 23, 2016 at 2:20 PM


Visibility: N/A

Pressure: 30.07 "Hg

Humidity: 48%

Dew Point: 57 °F

Location of HarstadLocation

Past Weather in Harstad — Graph

°F

Harstad Temperature Yesterday

Maximum temperature yesterday: 86 °F (at 4:20 PM)
Minimum temperature yesterday: 52 °F (at 1:50 AM)
Average temperature yesterday: 68 °F

High & Low Weather Summary for the Past Weeks

 TemperatureHumidityPressure
High86 °F (Jul 22, 4:20 PM)100% (Jul 9, 10:50 PM)30.15 "Hg (Jul 9, 10:50 PM)
Low46 °F (Jul 21, 1:50 AM)37% (Jul 22, 3:20 PM)29.47 "Hg (Jul 17, 3:20 AM)
Average55 °F83%29.80 "Hg
* Reported Jul 8 1:50 PM — Jul 23 1:50 PM, Harstad, Weather by CustomWeather, © 2016

Note: Actual official high and low records may vary slightly from our data, if they occured in-between our weather recording intervals... More about our weather records

Advertising

Harstad Weather History for the Previous 24 Hours

Scroll right to see more
 ConditionsComfort  
Time TempWeatherWind HumidityBarometerVisibility
1:50 PM
Sat, Jul 23
79 °FWarm.7 mph48%30.07 "HgN/A
1:20 PM79 °FWarm.7 mph45%30.07 "HgN/A
12:50 PM79 °FWarm.3 mph48%30.07 "HgN/A
12:20 PM77 °FWarm.5 mph51%30.07 "HgN/A
11:50 AM77 °FPassing clouds.5 mph54%30.07 "HgN/A
11:20 AM75 °FSunny.7 mph54%30.07 "Hg10 mi
10:50 AM75 °FSunny.5 mph57%30.07 "Hg10 mi
10:20 AM73 °FSunny.6 mph61%30.07 "Hg10 mi
9:50 AM72 °FSunny.7 mph61%30.07 "Hg10 mi
8:50 AM70 °FPassing clouds.5 mph64%30.07 "HgN/A
7:50 AM64 °FPassing clouds.5 mph78%30.09 "HgN/A
6:50 AM63 °FSunny.5 mph83%30.09 "Hg10 mi
6:20 AM63 °FSunny.5 mph83%30.09 "Hg10 mi
5:50 AM61 °FPassing clouds.5 mph88%30.09 "HgN/A
5:20 AM59 °FPassing clouds.3 mph94%30.09 "HgN/A
4:50 AM57 °FOvercast.3 mph94%30.09 "HgN/A
4:20 AM59 °FPartly sunny.1 mph88%30.09 "HgN/A
3:50 AM59 °FPartly sunny.1 mph94%30.09 "HgN/A
3:20 AM57 °FScattered clouds.6 mph94%30.09 "HgN/A
2:50 AM57 °FPassing clouds.5 mph94%30.09 "HgN/A
2:20 AM59 °FPartly cloudy.3 mph88%30.09 "HgN/A
1:50 AM59 °FPassing clouds.2 mph94%30.09 "HgN/A
1:20 AM59 °FPassing clouds.2 mph94%30.09 "HgN/A
12:50 AM61 °FPassing clouds.1 mph88%30.09 "HgN/A
12:20 AM63 °FPassing clouds.5 mph83%30.09 "HgN/A
11:50 PM
Fri, Jul 22
63 °FPassing clouds.2 mph83%30.09 "HgN/A
11:20 PM66 °FBroken clouds.2 mph68%30.09 "HgN/A
10:50 PM70 °FSunny.6 mph60%30.09 "Hg10 mi
9:50 PM70 °FSunny.8 mph60%30.09 "Hg10 mi
8:50 PM72 °FBroken clouds.7 mph61%30.07 "HgN/A
7:50 PM73 °FPartly sunny.6 mph61%30.07 "HgN/A
6:50 PM79 °FPartly sunny.3 mph45%30.07 "HgN/A
5:50 PM82 °FPartly sunny.1 mph45%30.07 "HgN/A
4:50 PM82 °FScattered clouds.6 mph42%30.07 "HgN/A
4:20 PM86 °FPassing clouds.6 mph38%30.07 "HgN/A
3:50 PM84 °FPassing clouds.5 mph40%30.07 "HgN/A
3:20 PM84 °FPassing clouds.5 mph37%30.07 "HgN/A
Weather by CustomWeather, © 2016

See weather overviewHow to use our weather pages